[[{"header":{"parameterUnit":"m.s-1","parameterCategory":1,"la1":30.2991,"la2":30.254,"lo1":-89.0895,"lo2":-89.0444,"dy":0.0017,"dx":0.0017,"nx":28,"ny":28,"refTime":"2023-08-09T09:00:00:Z","depth":0,"parameterNumber":2,"parameterNumberName":"U-component_of_WINDS"},"data":[0,0,0,0,0,0,0,0,0,0,0,0,0,0,0,0,0,0,0,0,0,0,0,0,0,0,0,0,0,0,0,0,0,0,0,0,0,0,0,0,0,0,0,0,0,0,0,0,0,0,0,0,0,0,0,0,0,0,3.2654,3.2653,0,3.2631,3.2631,3.2631,3.2546,3.2544,3.2542,3.254,3.2516,3.2518,3.2519,0,0,0,0,0,0,0,0,0,0,0,0,0,3.2622,3.2623,3.2654,3.2653,3.2653,3.2631,3.2631,3.263,3.2546,3.2544,3.2541,3.2539,3.2516,3.2517,3.2519,0,0,0,0,0,0,0,0,0,0,0,0,0,3.2621,3.2623,3.2654,3.2608,3.2604,3.2631,3.2631,3.263,3.2547,3.2544,3.2541,3.2538,3.2516,3.2517,3.2519,3.2588,0,0,3.2524,3.2525,0,0,0,0,0,0,0,0,3.2621,3.2622,3.2615,3.2611,3.2607,3.2588,3.2611,3.2616,3.2547,3.2568,3.254,3.2537,3.2543,3.2542,3.2544,3.2587,3.2586,3.2525,3.2526,3.2526,3.2527,0,0,0,0,0,0,0,3.2621,3.2623,3.2645,3.2615,3.261,3.2588,3.2585,3.2611,3.2572,3.2566,3.256,3.2559,3.254,3.2543,3.2543,3.2586,3.2525,3.2526,3.2527,3.2528,3.268,3.2683,0,0,0,0,0,0,3.2628,3.2623,3.2645,3.2644,3.2607,3.2591,3.2588,3.2597,3.2572,3.2565,3.2561,3.2555,3.2541,3.2541,3.2542,3.2617,3.2526,3.2528,3.2529,3.2677,3.268,3.2684,0,0,0,0,0,0,3.2628,3.2631,3.2646,3.2632,3.2632,3.2595,3.2606,3.2598,3.2601,3.2568,3.256,3.2571,3.2539,3.2539,3.2576,3.2616,3.2529,3.253,3.2673,3.2678,3.2682,3.2772,0,0,0,0,0,0,3.2627,3.2631,3.2658,3.2633,3.2633,3.2682,3.2609,3.26,3.2604,3.2596,3.2575,3.2569,3.2536,3.2574,3.2578,3.2616,3.2532,3.267,3.2675,3.2681,3.2765,3.2779,3.2791,0,0,0,0,0,3.2626,3.2684,3.2659,3.2662,3.2666,3.2685,3.2684,3.2646,3.2608,3.2633,3.2611,3.257,3.2612,3.2579,3.2582,3.2622,3.2667,3.2674,3.268,3.276,3.2776,3.279,0,0,0,0,0,0,3.2715,3.268,3.2652,3.2705,3.2698,3.267,3.2701,3.2666,3.267,3.2662,3.2614,3.261,3.2653,3.2641,3.2606,3.2686,3.2632,3.264,3.2691,3.2707,3.2719,3.2719,3.2533,0,0,0,0,0,3.2741,3.2759,3.2728,3.2777,3.2775,3.2739,3.2746,3.2717,3.2708,3.2705,3.2686,3.2679,3.2689,3.2698,3.2707,3.2764,3.2757,3.2793,3.2806,3.2816,3.2823,3.2849,3.2863,3.2706,3.2706,3.2706,0,0,3.2794,3.2777,3.2792,3.2794,3.2786,3.2805,3.2737,3.2761,3.2774,3.2708,3.2741,3.2727,3.2716,3.2762,3.2782,3.2754,3.2865,3.2825,3.2834,3.2834,3.2857,3.2872,3.2885,3.271,3.2709,3.2709,0,0,3.2899,3.289,3.2928,3.292,3.2908,3.2883,3.2893,3.287,3.2858,3.289,3.284,3.2855,3.2876,3.2869,3.2868,3.297,3.293,3.2974,3.3039,3.3065,3.3078,3.3088,3.3121,3.3134,3.2981,3.2981,3.2982,0,3.2966,3.2993,3.2952,3.2978,3.2979,3.2921,3.2957,3.2953,3.2944,3.2946,3.2915,3.2938,3.2927,3.2969,3.2994,3.2996,3.3003,3.2975,3.3079,3.309,3.3099,3.313,3.3142,3.2987,3.2986,3.2985,3.2985,0,3.3074,3.3094,3.3126,3.3118,3.3123,3.3155,3.3118,3.3128,3.3099,3.3077,3.3109,3.3093,3.3096,3.3105,3.3077,3.3142,3.3125,3.3088,3.3032,3.312,3.3147,3.3159,3.2994,3.2992,3.2991,3.2989,0,0,3.3234,3.3202,3.3214,3.3208,3.319,3.3204,3.3232,3.3235,3.3243,3.3239,3.326,3.3278,3.3243,3.3242,3.3213,3.3236,3.3313,3.3195,3.3194,3.3215,3.3381,3.3406,3.3421,3.3288,3.329,3.3292,3.338,0,3.3331,3.3377,3.334,3.3392,3.3408,3.3352,3.3376,3.3367,3.3348,3.3358,3.3336,3.3348,3.3303,3.3301,3.3322,3.3299,3.3345,3.3293,3.3304,3.3305,3.3305,3.3436,3.3463,3.3548,3.3391,3.3393,3.3395,0,3.3451,3.3451,3.3504,3.348,3.3485,3.3508,3.3505,3.3516,3.3504,3.3488,3.3487,3.345,3.3474,3.3423,3.3454,3.3419,3.3422,3.3412,3.3414,3.3411,3.3353,3.3433,3.3574,3.3585,3.3412,3.3411,3.3409,0,3.3557,3.3571,3.3604,3.3601,3.3575,3.3591,3.3581,3.3566,3.3569,3.3567,3.3568,3.357,3.357,3.3572,3.3536,3.3502,3.3571,3.3517,3.3556,3.3557,3.3571,3.357,3.3711,3.3579,3.3579,3.3578,3.3578,0,3.3667,3.3701,3.365,3.367,3.3706,3.3664,3.37,3.3684,3.3671,3.3685,3.3639,3.3653,3.3607,3.3617,3.3589,3.3617,3.3619,3.3605,3.3597,3.3607,3.3609,3.3606,3.3598,3.3582,3.3581,3.358,3.358,0,3.3791,3.3759,3.379,3.3762,3.3756,3.3783,3.3758,3.3775,3.3752,3.3771,3.3773,3.3738,3.3746,3.3712,3.3715,3.3696,3.3737,3.3721,3.3741,3.3735,3.3775,3.377,3.3916,3.3932,3.3793,3.3795,3.3796,0,3.3862,3.3886,3.386,3.3867,3.3858,3.387,3.3872,3.3831,3.3835,3.3822,3.384,3.3845,3.3846,3.3862,3.3836,3.3837,3.3818,3.387,3.3818,3.3827,3.3815,3.3812,3.3813,3.3879,3.3881,3.3882,3.3884,0,3.399,3.3972,3.3977,3.3976,3.398,3.3978,3.3972,3.398,3.3936,3.3943,3.395,3.3951,3.3954,3.3958,3.3954,3.3942,3.3905,3.39,3.3909,3.3918,3.3927,3.3919,3.3766,3.3896,3.3895,3.3894,3.3893,3.3893,3.4086,3.4104,3.4088,3.4094,3.4086,3.4081,3.4094,3.4073,3.4079,3.4077,3.4053,3.4065,3.405,3.404,3.4032,3.404,3.4016,3.4029,3.4032,3.4035,3.404,3.3929,3.404,3.4039,3.4039,3.4039,3.4038,0,3.4208,3.4195,3.4202,3.4194,3.4199,3.4165,3.4156,3.4162,3.4173,3.4162,3.4164,3.4172,3.4176,3.415,3.415,3.4161,3.4143,3.4162,3.4159,3.4156,3.4064,3.4055,3.4176,3.4176,3.4176,3.4175,3.4175,3.4175,3.4272,3.4299,3.428,3.4302,3.4288,3.4299,3.4296,3.4291,3.4282,3.4293,3.4295,3.4279,3.4261,3.4259,3.426,3.4252,3.4253,3.4277,3.4263,3.4176,3.4163,3.415,3.4141,3.4278,3.4278,3.4353,3.4354,3.4355]},{"header":{"parameterUnit":"m.s-1","parameterCategory":1,"la1":30.2991,"la2":30.254,"lo1":-89.0895,"lo2":-89.0444,"dy":0.0017,"dx":0.0017,"nx":28,"ny":28,"refTime":"2023-08-09T09:00:00:Z","depth":0,"parameterNumber":3,"parameterNumberName":"V-component_of_WINDS"},"data":[0,0,0,0,0,0,0,0,0,0,0,0,0,0,0,0,0,0,0,0,0,0,0,0,0,0,0,0,0,0,0,0,0,0,0,0,0,0,0,0,0,0,0,0,0,0,0,0,0,0,0,0,0,0,0,0,0,0,6.9465,6.9465,0,6.9513,6.9513,6.9514,6.9462,6.946,6.9458,6.9456,6.95,6.9503,6.9506,0,0,0,0,0,0,0,0,0,0,0,0,0,6.9322,6.9325,6.9465,6.9466,6.9466,6.9513,6.9513,6.9514,6.9462,6.946,6.9457,6.9455,6.9499,6.9502,6.9506,0,0,0,0,0,0,0,0,0,0,0,0,0,6.9379,6.9326,6.9465,6.9446,6.9445,6.9513,6.9513,6.9514,6.9463,6.946,6.9457,6.9454,6.9498,6.9502,6.9506,6.9593,0,0,6.952,6.9522,0,0,0,0,0,0,0,0,6.9375,6.9384,6.9448,6.9447,6.9446,6.9478,6.9479,6.954,6.9463,6.9456,6.9456,6.9453,6.9495,6.9499,6.9515,6.9595,6.9597,6.9521,6.9523,6.9525,6.9526,0,0,0,0,0,0,0,6.9372,6.9381,6.9484,6.9449,6.9448,6.9433,6.9438,6.949,6.9491,6.9456,6.9453,6.9459,6.9494,6.951,6.9515,6.9598,6.952,6.9524,6.9527,6.9529,6.9749,6.9752,0,0,0,0,0,0,6.9371,6.9379,6.9482,6.9485,6.9403,6.9438,6.9443,6.9471,6.949,6.9491,6.9462,6.9457,6.9504,6.951,6.9516,6.9617,6.9525,6.9529,6.9532,6.9746,6.975,6.9753,0,0,0,0,0,0,6.9368,6.938,6.948,6.9431,6.9443,6.9444,6.9475,6.9473,6.949,6.9495,6.9494,6.9479,6.9502,6.951,6.9574,6.9618,6.9531,6.9535,6.9742,6.9747,6.9752,6.9821,0,0,0,0,0,0,6.9364,6.938,6.9414,6.9432,6.9445,6.9539,6.9478,6.9477,6.9499,6.9493,6.9511,6.9511,6.95,6.9568,6.9579,6.9623,6.9539,6.9738,6.9744,6.975,6.9814,6.9827,6.9838,0,0,0,0,0,6.9359,6.9431,6.9416,6.9429,6.9489,6.9542,6.9549,6.9537,6.9503,6.9536,6.9538,6.951,6.9612,6.9575,6.9587,6.9633,6.9735,6.9743,6.975,6.9809,6.9825,6.9838,0,0,0,0,0,0,6.9417,6.9433,6.9417,6.9498,6.9519,6.9533,6.9575,6.9554,6.9585,6.9577,6.9559,6.9564,6.9632,6.9639,6.9597,6.9716,6.9668,6.9678,6.9709,6.9724,6.9735,6.9731,6.9543,0,0,0,0,0,6.944,6.9483,6.9494,6.9564,6.9576,6.9574,6.9597,6.9586,6.9606,6.9614,6.9622,6.9641,6.9677,6.9701,6.9735,6.9816,6.9817,6.9853,6.9865,6.9875,6.9882,6.9923,6.9938,6.9777,6.9777,6.9776,0,0,6.9486,6.95,6.9528,6.9576,6.9591,6.9634,6.9582,6.963,6.9661,6.9621,6.9682,6.9688,6.9708,6.9781,6.9813,6.9789,6.9928,6.9884,6.9891,6.9894,6.9932,6.9947,6.9961,6.9781,6.9781,6.978,0,0,6.9591,6.9608,6.9667,6.9683,6.9708,6.9706,6.972,6.9737,6.974,6.9801,6.9771,6.9807,6.9871,6.9886,6.9902,7.0012,6.9986,7.0024,7.0084,7.0124,7.0137,7.0148,7.0185,7.0199,7.0032,7.0032,7.0032,0,6.9645,6.9711,6.9699,6.975,6.977,6.9738,6.9795,6.9811,6.9845,6.9859,6.9832,6.9909,6.9921,6.9995,7.0022,7.0037,7.005,7.002,7.0137,7.0148,7.0158,7.0193,7.0207,7.0036,7.0036,7.0036,7.0035,0,6.9774,6.982,6.9864,6.9899,6.9924,6.9978,6.9972,7.0,6.9986,6.9987,7.0048,7.0061,7.0095,7.0113,7.01,7.0185,7.0168,7.014,7.009,7.0178,7.021,7.0223,7.0042,7.0041,7.004,7.0039,0,0,6.9917,6.9944,6.996,6.9974,6.9998,7.0032,7.0084,7.0119,7.0141,7.0165,7.0206,7.026,7.0233,7.0251,7.024,7.0275,7.0359,7.0241,7.0242,7.026,7.045,7.0469,7.0485,7.0343,7.0345,7.0347,7.0447,0,7.0021,7.0111,7.0102,7.0187,7.0228,7.0197,7.0241,7.026,7.0261,7.0294,7.0295,7.0333,7.0296,7.0306,7.034,7.0342,7.0396,7.0335,7.0378,7.0379,7.0371,7.0503,7.0524,7.0617,7.046,7.0462,7.0464,0,7.0154,7.0184,7.0273,7.029,7.0306,7.0346,7.0377,7.041,7.0429,7.0427,7.0448,7.043,7.0479,7.043,7.0496,7.0454,7.0472,7.0475,7.0478,7.0479,7.0425,7.0505,7.0647,7.066,7.0484,7.0482,7.0481,0,7.0245,7.0308,7.0369,7.0382,7.0404,7.0432,7.0442,7.0458,7.048,7.0506,7.0519,7.0551,7.0567,7.0591,7.0581,7.0547,7.0648,7.0599,7.0645,7.0645,7.0666,7.0664,7.081,7.0682,7.0681,7.0681,7.0681,0,7.0361,7.0416,7.041,7.0447,7.0507,7.0495,7.0555,7.056,7.0575,7.0611,7.0587,7.0621,7.0607,7.064,7.0633,7.0687,7.0695,7.0693,7.069,7.0694,7.0694,7.0703,7.0695,7.0685,7.0684,7.0683,7.0683,0,7.0472,7.0471,7.0535,7.055,7.0555,7.0598,7.061,7.0644,7.0644,7.0689,7.0699,7.0698,7.0735,7.0729,7.0769,7.0764,7.0831,7.0821,7.0825,7.0821,7.0867,7.0862,7.1022,7.1041,7.0903,7.0904,7.0905,0,7.0545,7.0587,7.0607,7.063,7.0642,7.068,7.0701,7.069,7.0714,7.0738,7.0768,7.0804,7.0831,7.0891,7.0892,7.0923,7.0912,7.0966,7.0916,7.0918,7.0909,7.0906,7.0909,7.0975,7.0976,7.0978,7.0979,0,7.0673,7.067,7.0703,7.0736,7.0763,7.0787,7.081,7.0829,7.082,7.0847,7.0885,7.0907,7.0948,7.0982,7.1011,7.1018,7.0996,7.0995,7.1007,7.101,7.1009,7.1007,7.0849,7.0991,7.0989,7.0989,7.0988,7.0987,7.0765,7.08,7.0819,7.0856,7.0872,7.0893,7.0925,7.0929,7.0961,7.0995,7.0987,7.1029,7.1045,7.1081,7.1092,7.1124,7.1103,7.1121,7.1125,7.1129,7.1133,7.1006,7.1129,7.1129,7.1129,7.1128,7.1128,0,7.089,7.0901,7.0935,7.0967,7.0995,7.0975,7.0998,7.1022,7.106,7.1078,7.1106,7.1148,7.1181,7.1186,7.1216,7.1241,7.1231,7.1249,7.1245,7.1247,7.1151,7.1137,7.1256,7.1256,7.1256,7.1256,7.1256,7.1256,7.0958,7.1015,7.1014,7.1078,7.1087,7.113,7.1144,7.1163,7.1177,7.1226,7.1254,7.1257,7.1269,7.13,7.1328,7.1329,7.134,7.1361,7.1357,7.1267,7.1254,7.1242,7.1228,7.1364,7.1364,7.145,7.145,7.1451]}]]